Regional Weather Roundup
Issued by NWS Wakefield, VA

Home | Current Version | Previous Version | Graphics & Text | Print | Product List | Glossary On
Versions: 1 2 3 4 5 6 7 8 9 10 11 12 13 14 15 16 17 18 19 20 21 22 23 24 25 26 27 28
000
ASUS41 KAKQ 272015
RWRAKQ

REGIONAL WEATHER ROUNDUP
NATIONAL WEATHER SERVICE WAKEFIELD VA
400 PM EDT WED JUL 27 2016

Note: "fair" indicates few or no clouds below 12,000 feet with no
significant weather and/or obstructions to visibility. * = Denotes
station may not report precipitation (e.g., rain,snow,etc.),
thunder or fog.

VAZ042-051-052>054-056-272100-
NORTHERN VIRGINIA

CITY           SKY/WX    TMP DP  RH WIND       PRES   REMARKS
WASH NATIONAL  PTSUNNY   94  65  38 VRB5      29.91F HX  96
DULLES         PTSUNNY   92  64  39 VRB5      29.92F
FORT BELVOIR   FAIR      92  68  45 VRB2      29.90F HX  96
QUANTICO       PTSUNNY   91  69  48 S6        29.92F HX  96
FREDERICKSBRG*   N/A     91  70  49 CALM      29.91S HX  96
STAFFORD*      FAIR      91  64  39 N5        29.96F
WARRENTON      FAIR      93  60  33 S6        29.92F
CULPEPER*      FAIR      90  71  53 W3        29.93F HX  96
MANASSAS*      MOSUNNY   95  66  38 CALM      29.91F HX  98
LEESBURG*      FAIR      91  70  49 W8        29.93F HX  97
WINCHESTER     FAIR      90  70  51 E9        29.94F HX  95
FRONT ROYAL*   FAIR      91  68  46 N5        29.92F HX  95
LURAY*         FAIR      90  68  48 CALM      29.95F
$$

VAZ048-049-060>072-079>083-272100-
CENTRAL AND SOUTH CENTRAL VIRGINIA

CITY           SKY/WX    TMP DP  RH WIND       PRES   REMARKS
RICHMOND       PTSUNNY   91  74  57 CALM      29.91F HX 100
CHESTERFIELD*  MOCLDY    95  66  38 CALM      29.92F HX  98
PETERSBURG*    FAIR      94  75  54 S3        29.92F HX 106
HANOVER        PTSUNNY   94  71  47 W3        29.92F HX 101
TAPPAHANNOCK*  FAIR      96  70  42 NE6       29.92S HX 103
QUINTON*       FAIR      92  77  59 CALM      29.91S HX 105
CHARLOTTSVILLE FAIR      84  76  76 VRB3      29.94F
GORDONSVILLE*  FAIR      88  74  64 CALM      29.93S HX  96
ORANGE*          N/A     90  72  55 CALM      29.96S HX  96
LOUISA*        FAIR      86  81  84 CALM      29.92F HX 102
BUMPASS*       FAIR      86  79  79 CALM      29.92F HX  99
FARMVILLE*     NOT AVBL
CREWE*         CLOUDY    92  76  58 CALM      29.92F HX 104
FORT PICKETT*  MOCLDY    92  78  65 SE7       29.93F HX 107
CHASE CITY*    FAIR      92  68  44 CALM      29.94S HX  96
CLARKSVILLE*   FAIR      93  73  52 S7        29.92F HX 102
SOUTH HILL*    FAIR      92  75  55 CALM      29.99S HX 103
LAWRENCEVILLE* FAIR      92  77  61 SW5       29.92F HX 106
EMPORIA*       FAIR      93  73  52 SW6       29.93F HX 102
$$

VAZ088>098-272100-
SOUTHEAST VIRGINIA

CITY           SKY/WX    TMP DP  RH WIND       PRES   REMARKS
NORFOLK        FAIR      92  76  59 NE9       29.90F HX 104
VIRGINIA BEACH PTSUNNY   94  76  55 E9        29.91R HX 106
NORFOLK NAVAL  FAIR      94  73  50 W6        29.92F HX 103
WEST POINT*    FAIR      93  74  53 SW5       29.91F HX 102
SALUDA*        FAIR      88  80  77 E3        29.91S HX 105
NEWPORT NEWS   FAIR      93  75  55 VRB6      29.91F HX 104
LANGLEY AFB    MOSUNNY   93  77  59 NE7       29.90F HX 106
FORT EUSTIS    FAIR      95  74  50 VRB5      29.89F HX 106
WILLIAMSBURG*  FAIR      97  75  49 W7        29.92S HX 109
HR EXEC AP*    FAIR      93  77  59 W5        29.93S HX 107
FRANKLIN*      PTSUNNY   92  76  60 NW6       29.91F HX 105
US460-WAKEFLD  FAIR      94  75  54 VRB5      29.91F HX 105
$$

VAZ020-022-025-037-045-272100-
WEST CENTRAL AND SOUTHWEST VIRGINIA

CITY           SKY/WX    TMP DP  RH WIND       PRES   REMARKS
STAUNTON*      FAIR      81  73  78 CALM      30.00S
WAYNESBORO*    FAIR      79  72  78 S3        30.00F
HOT SPRINGS VA NOT AVBL
LYNCHBURG      FAIR      82  75  79 CALM      29.96F THUNDER
DANVILLE       FAIR      93  72  50 SW7       29.95F HX 101
SOUTH BOSTON*  FAIR      96  70  43 S5        29.94R HX 102
MARTINSVILLE   FAIR      93  72  51 CALM      29.99S HX 101
ROANOKE        PTSUNNY   79  69  71 SE7       30.02S THUNDER
BLACKSBURG     RAIN      79  72  79 SW6       30.09R
DUBLIN*        LGT RAIN  77  72  84 SW8       30.08R
MARION*        FAIR      80  70  70 W9        30.12F
HILLSVILLE*    CLOUDY    86  69  56 CALM      30.08S
RICHLANDS*     MOCLDY    77  74  91 CALM      30.12F
WISE*          CLOUDY    75  72  88 N7        30.11F
ABINGDON*      FAIR      92  69  46 W8        30.05F HX  97
$$

MDZ021>025-VAZ099-100-272100-
SOUTHERN MARYLAND AND THE DELMARVA PENINSULA

CITY           SKY/WX    TMP DP  RH WIND       PRES   REMARKS
PATUXENT RIVER PTSUNNY   91  62  37 NE8       29.91S
BAY BRIDGE APT SUNNY     90  70  51 NW3       29.92S HX  95
LEONARDTOWN      N/A     86  72  62 CALM      29.93F
DOVER          MOSUNNY   87  78  75 NE7       29.90S HX  99
GEORGETOWN     MOSUNNY   93  68  43 VRB3      29.91F HX  97
EASTON         MOSUNNY   91  75  59 N6        29.95F HX 102
CAMBRIDGE      SUNNY     90  64  43 N7        29.91S
SALISBURY      CLOUDY    85  75  72 SE10      29.92S
OCEAN CITY     SUNNY     83  74  74 W3        29.92F
WALLOPS ISLAND FAIR      87  76  69 S9        29.92F HX  97
ACCOMACK*      NOT AVBL
$$

NCZ012>017-030>032-272100-
NORTH CENTRAL AND EASTERN NORTH CAROLINA

CITY           SKY/WX    TMP DP  RH WIND       PRES   REMARKS
ROANOKE RAPIDS FAIR      91  75  59 SW5       29.92F HX 102
RALEIGH        CLOUDY    87  80  79 CALM      29.94F HX 103
ELIZABETH CITY MOSUNNY   95  76  53 VRB3      29.90F HX 108
AHOSKIE*       SUNNY     90  79  69 CALM      29.92F HX 106
EDENTON*       SUNNY     94  75  53 SW3       29.91F HX 106
CURRITUCK*     MOSUNNY   93  75  54 NW5       29.92F HX 104
KILL DEVIL HLS SUNNY     96  73  47 NW3       29.91S HX 105
MANTEO           N/A     90  78  68 SW5       29.92F HX 104
CAPE HATTERAS  SUNNY     88  80  77 SW9       29.93F HX 104
TARBORO*       FAIR      96  77  54 W3        29.93S HX 110
GOLDSBORO      SUNNY     98  76  48 S7        29.91F HX 111
WASHINGTON     SUNNY     94  78  60 SW3       29.91F HX 110
GREENVILLE     SUNNY     97  81  59 W5        29.94S HX 118
NEW BERN       MOSUNNY   96  77  54 W7        29.93F HX 111
WILMINGTON     SUNNY     98  72  42 SW14      29.93F HX 107
$$

VAZ048-272100-
ELSEWHERE

CITY           SKY/WX    TMP DP  RH WIND       PRES   REMARKS
HARRISBURG PA  PTSUNNY   89  66  46 VRB3      29.92F
BALTIMORE      PTSUNNY   92  65  40 VRB3      29.90F
ANNAPOLIS      MOSUNNY   92  68  45 CALM      29.91F HX  96
ANDREWS AFB    FAIR      91  65  41 VRB7      29.91F
PHILADELPHIA   MOSUNNY   92  64  39 S7        29.91F
GREENSBORO     PTSUNNY   96  67  38 S6        29.94F HX 100
ROCKY MOUNT    SUNNY     95  76  53 MISG      29.93F HX 108
$$

VAZ100-272100-
MARINE

STATION/POSITION TIME  TEMP    WIND        PRES    WAVE   SWELL
                       AIR SEA DIR/SP/G            HT/PER HT/PER
                 (UTC) (F)     (DEG/KT/KT) (MB)    (FT/S) (FT/S)
BRANDYWINE LGT   1900   78     170/ 17/ 19   N/A
CAPE MAY NJ      1900   80 74  180/ 12/ 18 1013.0S
LEWES DE         1900   87 78  170/  2/  4 1013.0F
OCEAN-CITY-INLET 1900   77 72  210/ 10/ 12 1013.9F
WACHAPREAGUE VA  1900   83 86   80/ 10/ 15 1013.7R
THOMAS POINT MD  2000   86 86   70/  4/  4 1014.3F
GOOSES REEF MD   2000   89 88   50/  6/  8 1013.9F   0
COVE POINT MD    1900   86      50/  6/  8 1013.6F
SOLOMONS ISLAND  1900   89 86   90/  8/  8   N/A
BISHOPS HEAD MD  1900   87     250/  6/  7 1013.4F
PINEY POINT MD   1900          320/  7/  7   N/A
POTOMAC MD       2000   88 88  160/  8/ 10 1011.8F   0
CAMBRIDGE MD     1900   89 87  300/  4/  6 1012.2F
LEWISETTA VA     1900   90 88   80/  4/  5 1012.6F
RAPPAHANNOCK LGT 1900             CALM     1013.8F
STINGRAY PT      2000   88 89   60/  6/  8 1013.3F   0
YORK RVR RNG VA  1900   86     130/  5/  5 1012.6F
YORKTOWN VA      1900   89 84  320/  2/  3 1012.6F
JAMESTOWN VA     2000   90     320/  2/  4   N/A     0
DOMINION TERM VA 1900   88     340/  6/  8 1013.2F
KIPTOPEKE VA     1900      84  320/  4/  5   N/A
CHES BAY BRIDGE  1900   84 79   20/  5/  7 1013.0F
CAPE HENRY VA    1900   84      60/  5/  5   N/A
WILLOUBY STN VA  1900   88     220/  8/  8   N/A
CAPE HENRY BUOY  1912      80                N/A     2/ 6
1ST LANDING BUOY 2000   82 80  110/  6/  8 1012.4F   1/ 3
CAPE CHARLES BUO 1926      80                N/A     1/ 5
OFFSHORE WE BUOY 1921      84                N/A     2/ 6
64NM E OF VA BCH 1950   83 83  270/  4/  4 1013.4F   3/ 5   2/ 5
DUCK PIER NC     1900   84 71  100/  7/  8 1012.8F
44100 DUCK FRF   1905      83                N/A     2/ 5
44056 DUCK FRF   1911      78                N/A     1/ 5
OREGON INLET NC  1900   87 85  190/  5/  6 1013.4F
HATTERAS NC      1900   87 83  200/  8/ 11 1013.6F
DIAMOND SHLS NC  1950   85 85  240/ 10/ 12 1013.5F   3/ 6   2/ 6
CAPE LOOKOUT NC  2000   87     210/ 10/ 13 1013.6F
$$




USA.gov is the U.S. government's official web portal to all federal, state and local government web resources and services.